Back to catalog

DODECAPOLE 2

AliveMilitaryPO
NORAD 1510·PAYLOAD·🇺🇸 United States

Launched Aug 13, 1965 from Vandenberg Space Force Base

Loading…

Next Passes (next 24 hours)

TLE

FreshSource: Space-Track

Epoch: Sep 14, 2026, 07:24 UTC

1 01510U 65065C   26257.30890754  .00002045  00000-0  11131-2 0  9997
2 01510  90.0702  25.6665 0037383 255.3513 104.3527 14.11627531 45737

Track DODECAPOLE 2 in real time with AllMySat

Download on the App Store